Find Starlink 3638

NORAD ID: 51786 Int'l Des: 2022-017 Owner: SPXS Country: US Constellation: starlink operational
LEOCIRCULAR

現在のビュー

3D地球を読み込み中...

About Starlink 3638

Starlink 3638 (NORAD 51786) is a starlink constellation satellite (v1.5) launched Feb 25, 2022 by SPXS of US. It operates in LEO, CIRCULAR orbit with a mass of 297.00 kg.

Starlink 3638について

説明を読み込み中...

次回通過

Passes for default location (London). Set your location on the main map for personalized predictions.

高度履歴

Loading altitude history...

軌道要素

1 51786U 22017U 26171.39509164 .00001291 00000-0 99218-4 0 9999
2 51786 53.1590 247.9413 0000895 104.1780 255.9311 15.08832911237786
Epoch: Jun 20, 2026 • Age: 33 hours

現在のステータス

高度 551.0 km
速度 7.59 km/s
衛星直下点 -34.58°S, 91.3°W
打ち上げ日 Feb 25, 2022
運用期間 4.3 years
タイプ internet

技術仕様

分類 Payload
質量 297.00 kg
乾燥質量 275.00 kg
総質量 297.00 kg
長さ 0.20 m
直径 2.80 m
スパン 9.00 m
形状 Box + pan
製造者 SPXS
バスタイプ Starlink
フェーズステータス In Orbit
所有者/国 SPXS/US

Most Searched